Regional Weather Roundup
Issued by NWS Sioux Falls, SD

Home | Current Version | Previous Version | Text Only | Print | Product List | Glossary Off
Versions: 1 2 3 4 5 6 7 8 9 10 11 12 13 14 15 16 17 18 19 20 21 22 23 24 25 26 27 28 29 30 31 32 33 34 35 36 37 38 39 40 41 42 43 44 45 46 47 48 49 50

000
ASUS43 KFSD 020002
RWRFSD

WEATHER ROUNDUP FOR SE SOUTH DAKOTA/SW MINNESOTA/NW IOWA
NATIONAL WEATHER SERVICE SIOUX FALLS SD
700 PM CDT WED APR 01 2015

NOTE: "FAIR" INDICATES FEW OR NO CLOUDS BELOW 12,000 FEET WITH NO
SIGNIFICANT WEATHER AND OR OBSTRUCTIONS TO VISIBILITY.


SDZ038>040-050-052>070-020100-
SOUTHEAST SOUTH DAKOTA

CITY           SKY/WX    TMP DP  RH WIND       PRES   REMARKS
BROOKINGS      CLOUDY    64  41  42 NW16      29.54F
CHAMBERLAIN    NOT AVBL
HURON          MOCLDY    66  33  29 NW18G30   29.62R
6HR MIN TEMP:  65; 6HR MAX TEMP:  73; 6HR PCP: TRACE;

MADISON        FAIR      64  39  39 NW22G28   29.55S
MITCHELL       MOCLDY    66  39  37 NW23G31   29.61R HAZE
6HR MIN TEMP:  66; 6HR MAX TEMP:  79;

SIOUX FALLS    CLOUDY    68  39  34 N18       29.54R
6HR MIN TEMP:  68; 6HR MAX TEMP:  84;

WINNER         FAIR      66  26  22 N22G29    29.69R
YANKTON        CLOUDY    70  39  32 NW18G28   29.58R
$$

MNZ071-072-080-081-089-090-097-098-020100-
SOUTHWEST MINNESOTA

CITY           SKY/WX    TMP DP  RH WIND       PRES   REMARKS
FAIRMONT       MOCLDY    77  45  31 S25G33    29.49F
JACKSON        MOCLDY    77  39  25 S20G25    29.51S
LUVERNE        CLOUDY    64  43  45 N7        29.51S
MARSHALL       CLOUDY    66  37  34 NW24G30   29.49S
6HR MIN TEMP:  66; 6HR MAX TEMP:  84;

MONTEVIDEO     CLOUDY    64  41  42 N20G26    29.48F
PIPESTONE      MOCLDY    66  36  32 NW22G30   29.52R
REDWOOD FALLS  TSTM      64  43  46 NW12G28   29.48R
TRACY          CLOUDY    69  40  34 NW6       29.51R
WINDOM         CLOUDY    79  39  24 W18       29.49R
WORTHINGTON    CLOUDY    72  37  28 W8        29.52R
$$

IAZ001>003-012>014-020>022-031-032-NEZ013-014-SDZ071-020100-
NORTHWEST IOWA

CITY           SKY/WX    TMP DP  RH WIND       PRES   REMARKS
DENISON        PTCLDY    77  46  33 S17G28    29.53F
ESTHERVILLE    MOCLDY    77  47  34 S23       29.50F
SIOUX CITY     MOCLDY    80  45  28 S21G29    29.49F
6HR MIN TEMP:  79; 6HR MAX TEMP:  86;

SPENCER        MOCLDY    78  46  32 S20G29    29.51F
6HR MIN TEMP:  78; 6HR MAX TEMP:  84;

$$

ABBREVIATIONS USED IN REMARKS
   TC - TEMPERATURE IN CELSIUS
  WCI - WIND CHILL INDEX
   HX - HEAT INDEX
  VSB - VISIBILITY



USA.gov is the U.S. government's official web portal to all federal, state and local government web resources and services.